Total_Precipitation_Accumulation
3.03 3.34 3.24 3.28 2.99 3.15 3.46 3.77 3.77 4.02 4.34 4.23 3.74 3.51 3.58 3.48 3.20 3.00 3.17 3.41 3.48 3.46 3.85 4.15 3.80 3.50 3.40 3.06 2.76 2.60 2.47 2.39 2.21 1.98 1.81 1.71 1.59 1.41 1.27 1.25 1.08 0.98 0.91
3.28 3.57 3.44 3.32 2.98 3.00 3.34 3.65 3.67 4.04 4.20 4.27 3.74 3.42 3.40 3.36 3.06 2.77 2.83 3.33 3.40 3.31 3.52 3.95 4.10 3.98 3.78 3.45 3.11 2.82 2.58 2.42 2.34 2.17 1.91 1.73 1.64 1.54 1.50 1.38 1.22 1.14 1.03
3.50 3.82 3.75 3.31 3.04 3.14 3.35 3.31 3.44 3.97 3.92 3.85 3.73 3.60 3.50 3.32 2.98 2.89 2.83 3.03 2.91 3.04 3.33 3.52 3.85 4.12 4.17 4.04 3.81 3.42 3.08 2.66 2.39 2.20 1.95 1.75 1.65 1.51 1.49 1.45 1.34 1.27 1.14
3.10 3.52 3.31 2.88 2.93 3.11 3.32 3.36 3.32 3.72 3.90 3.92 3.97 3.77 3.57 3.35 2.94 2.82 2.81 2.81 2.80 2.53 2.84 3.21 3.62 3.94 4.36 4.62 4.69 4.56 4.12 3.38 2.79 2.46 2.13 1.92 1.77 1.57 1.40 1.36 1.38 1.35 1.20
2.21 2.64 2.64 2.57 2.59 2.86 2.96 2.63 2.88 3.22 3.45 3.64 3.36 3.28 2.93 2.73 2.64 2.44 2.40 2.32 2.53 2.65 2.81 2.86 3.24 3.57 4.23 5.09 5.61 5.56 5.09 4.20 3.39 2.94 2.60 2.33 2.16 1.88 1.56 1.38 1.38 1.33 1.22
2.05 2.33 2.38 2.23 2.19 2.43 2.58 2.72 3.04 3.11 2.98 3.06 2.65 2.67 2.65 2.40 2.37 2.33 2.15 2.14 2.24 2.22 2.51 2.83 3.14 2.95 3.48 4.46 5.23 5.47 5.36 4.91 4.09 3.45 3.10 2.93 2.84 2.44 1.93 1.67 1.58 1.44 1.32
2.22 2.53 2.34 2.39 2.22 2.28 2.37 2.43 2.67 2.79 2.56 2.74 3.12 2.94 2.60 2.32 2.25 2.15 2.09 2.17 2.17 2.30 2.52 2.90 3.14 3.21 3.09 3.12 3.60 4.37 5.03 5.33 5.11 4.42 3.77 3.36 3.25 2.84 2.27 2.02 1.82 1.65 1.61
2.15 2.11 2.34 2.18 2.14 2.39 2.35 2.43 2.65 2.61 2.34 2.52 3.03 3.26 3.01 2.94 2.37 1.74 1.95 2.09 2.15 2.42 2.47 2.46 2.70 3.23 3.25 3.43 2.81 3.14 4.31 5.09 5.61 5.62 4.92 4.13 3.71 3.22 2.68 2.45 2.19 1.96 1.86
1.80 1.92 1.99 1.98 2.14 2.08 2.28 2.43 2.51 2.72 2.67 2.42 2.44 2.94 2.96 2.92 2.62 2.04 1.75 1.86 2.17 2.47 2.45 2.48 2.51 2.85 3.14 3.52 3.36 2.87 3.16 3.76 4.84 5.85 5.94 5.09 4.06 3.31 2.95 2.83 2.72 2.47 2.23
1.79 1.84 1.87 2.05 2.12 2.00 2.31 2.02 2.19 2.58 2.75 2.48 2.47 2.39 2.44 2.64 2.72 2.53 2.15 1.86 2.05 2.16 2.26 2.24 2.39 2.72 2.99 3.23 3.29 2.69 2.36 2.63 3.58 4.85 5.72 5.70 4.89 3.89 3.34 3.33 3.51 3.34 2.94
1.88 1.70 1.88 2.15 2.25 2.11 2.15 2.18 2.44 2.42 2.44 2.40 2.36 2.31 2.44 2.52 2.34 2.41 2.41 2.22 2.05 1.72 1.86 2.16 2.39 2.53 2.70 2.97 3.26 2.91 2.71 2.51 2.60 3.14 3.90 4.65 5.05 4.68 4.24 4.16 4.44 4.59 4.35
1.91 1.81 1.96 2.22 2.25 2.30 2.27 2.21 2.23 2.23 2.39 2.49 2.41 2.26 2.35 2.48 2.48 2.59 2.35 2.27 2.28 1.96 2.04 2.31 2.40 2.49 2.49 2.65 2.67 2.64 2.57 2.52 2.46 2.43 2.66 3.13 3.81 4.30 4.44 4.62 5.01 5.36 5.48
1.73 1.86 1.97 2.20 2.19 2.20 2.15 2.36 2.36 2.26 2.36 2.39 2.34 2.31 2.24 2.16 2.29 2.47 2.48 2.30 2.28 2.15 2.36 2.33 2.34 2.38 2.34 2.60 2.74 2.68 2.30 2.32 2.20 2.12 2.18 2.36 2.70 3.26 3.82 4.21 4.68 5.18 5.55
1.44 1.57 1.74 1.80 1.89 1.94 1.90 2.40 2.29 2.31 2.39 2.24 2.10 2.46 2.33 2.03 2.19 2.33 2.57 2.84 2.67 2.51 2.58 2.47 2.41 2.39 2.55 2.68 2.78 2.70 2.27 2.30 2.14 1.96 1.84 1.81 1.92 2.18 2.60 2.97 3.35 3.73 4.16
1.48 1.54 1.63 1.85 1.99 2.05 2.12 2.41 2.34 2.32 2.49 2.26 2.19 2.37 2.29 2.18 2.16 2.14 2.53 2.93 3.16 2.94 2.75 2.62 2.36 2.24 2.35 2.49 2.56 2.19 2.01 2.16 2.06 1.90 1.75 1.65 1.65 1.75 1.93 2.08 2.18 2.29 2.46
1.62 1.74 1.84 2.00 2.11 2.08 2.12 2.34 2.29 2.40 2.52 2.38 2.34 2.38 2.30 2.22 2.32 2.24 2.38 2.70 2.98 3.18 2.95 2.44 2.27 2.16 2.17 1.99 2.11 1.84 1.87 2.06 1.92 1.75 1.67 1.63 1.62 1.63 1.65 1.68 1.73 1.77 1.83
1.73 1.81 1.92 2.08 2.11 2.18 2.30 2.42 2.24 2.35 2.48 2.64 2.51 2.50 2.54 2.64 2.60 2.48 2.58 2.68 2.87 3.16 3.07 2.51 2.40 2.40 2.26 2.02 1.96 1.84 1.78 1.87 1.88 1.96 1.78 1.66 1.55 1.46 1.45 1.47 1.51 1.59 1.66
2.05 2.00 2.07 2.13 2.02 2.08 2.30 2.37 2.36 2.40 2.43 2.48 2.67 2.93 2.81 2.86 2.80 2.64 2.77 2.72 2.80 3.13 3.02 2.71 2.70 2.70 2.63 2.38 2.20 1.99 1.76 1.74 1.86 2.09 1.83 1.67 1.59 1.51 1.47 1.45 1.44 1.43 1.46
2.31 2.37 2.39 2.24 2.15 2.14 2.22 2.33 2.45 2.46 2.47 2.52 2.68 2.76 2.81 3.03 2.90 2.79 2.70 2.67 2.76 2.94 3.09 2.83 2.75 2.94 2.79 2.49 2.34 2.05 1.83 1.92 1.67 1.80 1.77 1.70 1.67 1.60 1.53 1.45 1.44 1.42 1.39
2.36 2.51 2.48 2.42 2.35 2.24 2.11 2.09 2.18 2.27 2.41 2.57 2.61 2.52 2.62 2.88 2.95 2.94 2.72 2.70 2.84 2.97 3.04 2.93 2.81 2.95 2.98 2.86 2.66 2.41 2.29 2.11 1.89 1.73 1.79 1.70 1.68 1.63 1.55 1.43 1.42 1.42 1.43
2.32 2.49 2.52 2.55 2.53 2.33 2.05 2.14 2.28 2.27 2.45 2.46 2.37 2.26 2.26 2.52 2.75 2.83 2.56 2.57 2.73 2.76 2.79 2.83 2.81 2.90 2.97 3.11 2.93 2.61 2.37 2.21 1.97 1.77 1.77 1.63 1.62 1.54 1.55 1.56 1.54 1.44 1.29
2.71 2.72 2.60 2.54 2.47 2.10 2.22 2.31 2.33 2.34 2.44 2.43 2.36 2.26 2.14 2.11 2.12 2.28 2.40 2.52 2.67 2.66 2.68 2.87 3.03 3.09 3.09 3.14 3.12 2.90 2.61 2.35 2.10 1.85 1.94 1.91 1.84 1.79 1.63 1.49 1.53 1.44 1.31
3.08 3.06 2.89 2.71 2.55 2.49 2.44 2.23 2.21 2.08 2.10 2.15 2.23 2.23 1.93 1.74 1.86 1.78 2.01 2.20 2.30 2.39 2.47 2.70 2.87 2.95 3.08 3.21 3.29 3.01 2.83 2.62 2.33 2.08 2.10 1.93 1.84 1.83 1.74 1.67 1.74 1.52 1.41
3.02 3.03 2.92 2.78 2.65 2.56 2.47 2.18 2.15 1.91 1.88 1.90 1.96 1.99 1.92 1.79 1.80 1.93 1.93 1.85 1.79 1.87 2.08 2.12 2.25 2.55 2.80 3.02 3.21 3.11 3.03 2.72 2.37 2.12 2.08 1.90 1.73 1.72 1.72 1.76 1.82 1.66 1.49
2.78 2.67 2.57 2.55 2.53 2.58 2.59 2.28 2.10 1.85 1.87 1.83 1.81 1.83 1.85 1.74 1.92 1.90 1.85 1.82 1.80 1.80 1.89 2.00 2.01 2.18 2.43 2.61 2.78 2.89 2.86 2.71 2.43 2.20 2.18 2.15 1.91 1.85 1.82 1.69 1.64 1.69 1.54
2.72 2.63 2.48 2.46 2.45 2.41 2.48 2.15 2.01 1.81 1.81 1.79 1.83 1.83 1.84 1.73 1.76 1.69 1.64 1.74 1.71 1.73 1.84 1.85 1.83 1.83 1.93 2.26 2.66 2.52 2.56 2.64 2.40 2.08 1.87 2.00 2.00 2.05 1.95 1.63 1.44 1.40 1.39